[ hide orbit diagram ]
For accurate long-term ephemerides, please instead use our Horizons system.This orbit viewer was implemented using two-body methods, and hence should not be used for determining accurate long-term trajectories (over several years or decades) or planetary encounter circumstances.
Orbital Elements at Epoch 2459000.5 (2020-May-31.0) TDB
Reference: JPL 38 (heliocentric ecliptic J2000)
Element | Value | Uncertainty (1-sigma) | Units |
e | .1489031983052512 | 3.0964e-08 | |
a | 2.309197713496279 | 7.124e-09 | au |
q | 1.96535078843751 | 7.1139e-08 | au |
i | 5.137346244792344 | 3.3486e-06 | deg |
node | 154.291260133676 | 3.2859e-05 | deg |
peri | 172.329807134433 | 3.4302e-05 | deg |
M | 186.728430449822 | 1.0874e-05 | deg |
tp | 2459617.400203769979 (2022-Feb-06.90020377) | 4.0028e-05 | TDB |
period | 1281.710980824692 3.51 | 5.9312e-06 1.624e-08 | d yr |
n | .2808745539250705 | 1.2998e-09 | deg/d |
Q | 2.653044638555048 | 8.1848e-09 | au |
|
| | Orbit Determination Parameters
Additional Information
|
[ hide covariance matrix ]
Orbital Elements at Epoch 2456958.5 (2014-Oct-28.0) TDB
Reference: JPL 38 (heliocentric ecliptic J2000)
Element | Value | Uncertainty (1-sigma) | Units |
e | .14980875124693 | 3.1048e-08 | |
q | 1.963128575461903 | 7.1409e-08 | au |
tp | 2457053.243857518109 (2015-Jan-30.74385752) | 3.5392e-05 | TDB |
node | 154.3346929458179 | 3.2833e-05 | deg |
peri | 172.1401948969566 | 3.4251e-05 | deg |
i | 5.138975296690336 | 3.3507e-06 | deg |
|
| | Orbit Determination Parameters
Additional Information
|
Orbit Covariance (6×6)
|
|
e |
q |
tp |
node |
peri |
i |
e |
9.639770431807575E-16 |
-2.209255757229413E-15 |
4.664686396700133E-14 |
3.57890601804544E-15 |
-4.610423828760123E-15 |
5.146680508150086E-16 |
q |
-2.209255757229413E-15 |
5.099207197860122E-15 |
-6.101704831953343E-14 |
-8.405343007173009E-15 |
2.159705053648559E-14 |
-1.130667082102776E-15 |
tp |
4.664686396700133E-14 |
-6.101704831953343E-14 |
1.252627395808216E-9 |
-5.847430045102641E-12 |
3.524329443882511E-10 |
5.603539072763716E-15 |
node |
3.57890601804544E-15 |
-8.405343007173009E-15 |
-5.847430045102641E-12 |
1.078025578229946E-9 |
-1.074869341551933E-9 |
-9.541539626358036E-12 |
peri |
-4.610423828760123E-15 |
2.159705053648559E-14 |
3.524329443882511E-10 |
-1.074869341551933E-9 |
1.173141774209207E-9 |
9.48801468708157E-12 |
i |
5.146680508150086E-16 |
-1.130667082102776E-15 |
5.603539072763716E-15 |
-9.541539626358036E-12 |
9.48801468708157E-12 |
1.122726949957387E-11 |
|
Physical Parameter Table
Parameter |
Symbol |
Value |
Units |
Sigma |
Reference |
Notes |
absolute magnitude |
H |
14.6 |
|
n/a |
MPO412416 |
|
diameter |
diameter |
3.920 |
km |
0.137 |
urn:nasa:pds:neowise_diameters_albedos::2.0[mainbelt] (http://adsabs.harvard.edu/abs/2011ApJ...741...68M) |
|
geometric albedo |
albedo |
0.182 |
|
0.018 |
urn:nasa:pds:neowise_diameters_albedos::2.0[mainbelt] (http://adsabs.harvard.edu/abs/2011ApJ...741...68M) |
|
|
32163 Claireburch | Discovered 2000 June 24 by the Lincoln Laboratory Near-Earth Asteroid Research Team at Socorro. |
Claire Bernadette Burch (b. 1998) is a finalist in the 2016 Intel Science Talent Search , a science competition for high school seniors, for her space science project. She attends the Mira Loma High School, Sacramento, California. |
NOTE: some special characters may not display properly (any characters within {} are an attempt to place the proper accent above a character) |
Reference: MPC batch dated 2016-05-21 | Last Updated: 2016-05-24 |
|
|